Preview of NWS' New Version of Forecast
This preview is not operational and should not be used for support decisions.

Regional Weather Roundup (RWR)

Issued by National Weather Service (NWS)

                            
000
ASUS45 KABQ 200701
RWRNM 
NEW MEXICO REGIONAL WEATHER ROUNDUP
NATIONAL WEATHER SERVICE ALBUQUERQUE NM
100 AM MDT THU JUN 20 2019

NOTE: "FAIR" MEANS FEW OR NO CLOUDS BELOW 12,000 FEET AGL WITH NO
       SIGNIFICANT WEATHER OR OBSTRUCTIONS TO VISION.

      THIS PRODUCT IS RELEASED AS TWO VERSIONS.  ONE VERSION NEAR
      THE TOP OF THE HOUR CONTAINING PRELIMINARY DATA FROM ALBUQUERQUE
      AND OTHER STATIONS.  A FINAL VERSION WITH ADDITIONAL DATA IS 
      ISSUED ABOUT 10 MINUTES AFTER THE HOUR.
 
NMZ501-503-504-510>518-200800-
NORTHWEST PLATEAU/NORTHCENTRAL MOUNTAINS
  
CITY           SKY/WX    TMP DP  RH WIND       PRES   REMARKS
FARMINGTON     FAIR      58  29  33 N7        29.98S                  
LOS ALAMOS       N/A     67  29  24 NW13      30.13F                  
SANTA FE       FAIR      62  29  28 CALM      30.05F                  
TAOS           FAIR      50  31  48 NW5       30.13F                  
ANGEL FIRE       N/A     56  29  36 SW3       30.19S                  

$$
NMZ402-403-502-505>509-200800-
WESTCENTRAL MOUNTAINS/SOUTHWEST MOUNTAINS
  
CITY           SKY/WX    TMP DP  RH WIND       PRES   REMARKS
GALLUP         FAIR      66  24  20 SW12      30.13S                  
GRANTS         FAIR      70  22  16 W21G26    30.14S                  
SILVER CITY    FAIR      60  18  19 N10       30.10S                  

$$
NMZ407-409-411-412-200800-
SOUTHERN DESERTS
  
CITY           SKY/WX    TMP DP  RH WIND       PRES   REMARKS
DEMING         FAIR      68  22  17 SW8       30.01S                  
LAS CRUCES     FAIR      69  23  17 S7        30.01R                  
HOLLOMAN AFB   FAIR      77  22  13 SE9       29.96F                  
ALAMOGORDO     FAIR      72  23  16 SE9       29.96F                  
T OR C         FAIR      79  15   9 NW10      29.99S                  

$$
NMZ519>523-200800-
CENTRAL VALLEYS/CENTRAL HIGHLANDS
  
CITY           SKY/WX    TMP DP  RH WIND       PRES   REMARKS
ALBUQUERQUE    FAIR      70  30  22 CALM      30.00S                  
DOUBLE EAGLE   FAIR      66  30  25 W12       30.04S                  
MORIARTY ARPT  FAIR      50  32  51 CALM      30.08S                  
CLINES CORNERS FAIR      57  31  37 W8        30.13S                  
BELEN          FAIR      67  24  19 NW8       30.00S                  
SOCORRO        FAIR      79  22  12 W9        29.98R                  

$$
NMZ524>526-539-540-200800-
SOUTHCENTRAL MOUNTAINS
  
CITY           SKY/WX    TMP DP  RH WIND       PRES   REMARKS
RUIDOSO        FAIR      70  16  12 W12G23    30.15S                  

$$
NMZ527>531-200800-
NORTHEAST HIGHLANDS/NORTHEAST PLAINS
  
CITY           SKY/WX    TMP DP  RH WIND       PRES   REMARKS
LAS VEGAS      FAIR      57  33  40 W10       30.08F                  
RATON          FAIR      55  38  52 NW10      30.00S                  
CLAYTON        FAIR      63  52  67 SW12      29.91F                  

$$
NMZ532>537-200800-
EASTCENTRAL PLAINS
  
CITY           SKY/WX    TMP DP  RH WIND       PRES   REMARKS
SANTA ROSA     FAIR      69  36  28 W6        29.92S                  
TUCUMCARI      FAIR      64  49  57 S3        29.84S                  
CANNON AFB     FAIR      65  56  70 E7        29.91F                  
CLOVIS AIRPORT FAIR      65  59  81 SE9       29.91S                  

$$
NMZ028-029-538-200800-
SOUTHEAST PLAINS
  
CITY           SKY/WX    TMP DP  RH WIND       PRES   REMARKS
ROSWELL        FAIR      78  24  13 W10       29.84F                  
ARTESIA        FAIR      79  28  15 W15G21    29.87S                  
CARLSBAD       FAIR      79  24  13 W13       29.83F                  


$$